Home > Weather > Pictou > Past weeks

Flag for Canada Past Weather in Pictou, Nova Scotia, Canada — Yesterday and Last 2 Weeks

Now
67 °F

Mild.


Feels Like: 67 °F
Forecast: 64 / 74 °F
Wind: 5 mph from Southwest

Location: Caribou Point

Current Time: Jul 24, 2016 at 2:10:09 AM

Latest Report: Jul 24, 2016 at 1:00 AM


Visibility: N/A

Pressure: 29.69 "Hg

Humidity: 88%

Dew Point: 63 °F

Location of PictouLocation

Past Weather in Pictou — Graph

°F

Pictou Temperature Yesterday

Maximum temperature yesterday: 82 °F (at 5:00 PM)
Minimum temperature yesterday: 67 °F (at 1:00 AM)
Average temperature yesterday: 73 °F

High & Low Weather Summary for the Past Weeks

 TemperatureHumidityPressure
High86 °F (Jul 15, 5:00 PM)96% (Jul 10, 10:00 AM)30.16 "Hg (Jul 10, 10:00 AM)
Low54 °F (Jul 12, 5:00 AM)45% (Jul 21, 6:00 PM)29.59 "Hg (Jul 23, 3:00 AM)
Average66 °F79%29.88 "Hg
* Reported Jul 9 1:00 AM — Jul 24 1:00 AM, Pictou, Weather by CustomWeather, © 2016

Note: Actual official high and low records may vary slightly from our data, if they occured in-between our weather recording intervals... More about our weather records

Advertising

Pictou Weather History for the Previous 24 Hours

Scroll right to see more
 ConditionsComfort  
Time TempWeatherWind HumidityBarometerVisibility
1:00 AM
Sun, Jul 24
67 °FMild.5 mph88%29.69 "HgN/A
12:00 AM67 °FMild.3 mph86%29.69 "HgN/A
11:00 PM
Sat, Jul 23
68 °FMild.3 mph79%29.68 "HgN/A
10:00 PM68 °FMild.21 mph74%29.68 "HgN/A
9:00 PM72 °FMild.9 mph78%29.67 "HgN/A
8:00 PM76 °FMild.5 mph70%29.65 "HgN/A
7:00 PM80 °FWarm.5 mph59%29.63 "HgN/A
6:00 PM80 °FWarm.7 mph58%29.62 "HgN/A
5:00 PM82 °FWarm.8 mph56%29.61 "HgN/A
4:00 PM81 °FWarm.7 mph59%29.62 "HgN/A
3:00 PM81 °FWarm.7 mph60%29.62 "HgN/A
2:00 PM78 °FWarm.7 mph68%29.64 "HgN/A
1:00 PM76 °FMild.7 mph71%29.65 "HgN/A
12:00 PM75 °FMild.10 mph71%29.63 "HgN/A
11:00 AM79 °FWarm.7 mph65%29.63 "HgN/A
10:00 AM74 °FMild.5 mph76%29.64 "HgN/A
9:00 AM71 °FMild.7 mph83%29.65 "HgN/A
8:00 AM69 °FMild.8 mph87%29.65 "HgN/A
7:00 AM68 °FMild.7 mph90%29.64 "HgN/A
6:00 AM67 °FMild.6 mph90%29.63 "HgN/A
5:00 AM68 °FMild.12 mph90%29.60 "HgN/A
4:00 AM68 °FMild.9 mph89%29.59 "HgN/A
3:00 AM69 °FMild.14 mph87%29.59 "HgN/A
2:00 AM68 °FMild.10 mph87%29.61 "HgN/A
Weather by CustomWeather, © 2016

See weather overviewHow to use our weather pages